SR8WXB-1 Weather Reports


time (UTC)temp
F
wind
direction
speed
knots
gust
knots
rain 1hr
in
rain 24hr
in
rain mn
in
humidity
%
barometer
mb
20260504173702 64 238 13.9 19.1 0.00 0.00 0.00 100 942.9
20260504173259 64 239 13.0 18.2 0.00 0.00 0.00 100 942.8
20260504172859 65 238 15.6 22.6 0.00 0.00 0.00 100 942.8
20260504172459 65 240 15.6 20.9 0.00 0.00 0.00 100 942.8
20260504172100 65 241 16.5 22.6 0.00 0.00 0.00 100 942.8
20260504171700 65 240 16.5 21.7 0.00 0.00 0.00 100 942.7
20260504171257 65 240 15.6 20.9 0.00 0.00 0.00 100 942.7
20260504170857 66 241 14.8 19.1 0.00 0.00 0.00 100 942.7
20260504170457 66 240 16.5 22.6 0.00 0.00 0.00 100 942.8
20260504160437 69 251 13.0 15.6 0.00 0.00 0.00 100 943.1
20260504150825 71 238 16.5 21.7 0.00 0.00 0.00 100 943.3
20260504150425 72 239 17.4 20.9 0.00 0.00 0.00 100 943.3
20260504141208 73 239 16.5 23.5 0.00 0.00 0.00 100 943.5
20260504140808 73 254 14.8 17.4 0.00 0.00 0.00 100 943.5
20260504130756 74 240 14.8 22.6 0.00 0.00 0.00 100 943.9
20260504130356 73 244 15.6 25.2 0.00 0.00 0.00 100 944.0
20260504110324 72 252 17.4 23.5 0.00 0.00 0.00 100 944.9
20260504100315 70 266 18.2 22.6 0.00 0.00 0.00 100 945.5
20260504081850 65 255 15.6 18.2 0.00 0.00 0.00 100 946.0
20260504081450 65 263 14.8 20.0 0.00 0.00 0.00 100 945.9
20260504081047 64 260 13.9 18.2 0.00 0.00 0.00 100 946.0
20260504080647 64 253 16.5 22.6 0.00 0.00 0.00 100 946.0
20260504080247 64 249 16.5 20.0 0.00 0.00 0.00 100 945.9
20260504070235 60 240 9.6 15.6 0.00 0.00 0.00 100 945.7
20260504060216 56 241 7.8 9.6 0.00 0.00 0.00 100 945.5
20260504050604 53 243 10.4 13.0 0.00 0.00 0.00 100 945.3
20260504050204 53 244 11.3 13.9 0.00 0.00 0.00 100 945.3
20260504045804 53 241 10.4 13.0 0.00 0.00 0.00 100 945.3
20260504045404 53 243 10.4 13.0 0.00 0.00 0.00 100 945.3
20260504045001 53 244 12.2 14.8 0.00 0.00 0.00 100 945.3
20260504044601 53 245 12.2 13.9 0.00 0.00 0.00 100 945.4
20260504044201 52 244 11.3 13.9 0.00 0.00 0.00 100 945.4
20260504043801 52 246 12.2 13.9 0.00 0.00 0.00 100 945.4
20260504043401 52 245 11.3 13.9 0.00 0.00 0.00 100 945.4
20260504042958 52 245 11.3 13.9 0.00 0.00 0.00 100 945.3
20260504042558 52 244 11.3 13.9 0.00 0.00 0.00 100 945.3
20260504042158 52 246 12.2 14.8 0.00 0.00 0.00 100 945.3
20260504041758 52 244 12.2 14.8 0.00 0.00 0.00 100 945.3
20260504041358 52 245 12.2 14.8 0.00 0.00 0.00 100 945.3
20260504040955 52 244 11.3 13.9 0.00 0.00 0.00 100 945.3
20260504040555 52 243 11.3 13.9 0.00 0.00 0.00 100 945.3
20260504040155 52 244 11.3 13.9 0.00 0.00 0.00 100 945.3
20260504035755 51 244 11.3 13.9 0.00 0.00 0.00 100 945.2
20260504035347 51 244 12.2 14.8 0.00 0.00 0.00 100 945.2
20260504034944 51 243 11.3 13.0 0.00 0.00 0.00 100 945.3
20260504034544 51 243 12.2 13.0 0.00 0.00 0.00 100 945.2
20260504033744 51 244 12.2 13.0 0.00 0.00 0.00 100 945.2
20260504033344 51 243 9.6 12.2 0.00 0.00 0.00 100 945.2
20260504032937 51 244 12.2 13.9 0.00 0.00 0.00 100 945.2
20260504032537 51 241 10.4 14.8 0.00 0.00 0.00 100 945.2
20260504032137 51 244 11.3 13.9 0.00 0.00 0.00 100 945.2
20260504031737 51 241 11.3 13.0 0.00 0.00 0.00 100 945.2
20260504031337 51 241 10.4 12.2 0.00 0.00 0.00 100 945.2
20260504030934 51 238 10.4 13.9 0.00 0.00 0.00 100 945.2
20260504030534 51 238 8.7 12.2 0.00 0.00 0.00 100 945.2
20260504030134 51 239 10.4 13.0 0.00 0.00 0.00 100 945.2
20260504025734 51 240 11.3 13.9 0.00 0.00 0.00 100 945.2
20260504025334 51 242 12.2 13.0 0.00 0.00 0.00 100 945.2
20260504024931 51 239 9.6 11.3 0.00 0.00 0.00 100 945.2
20260504024532 51 237 9.6 12.2 0.00 0.00 0.00 100 945.2
20260504024132 51 240 10.4 13.9 0.00 0.00 0.00 100 945.2
20260504023732 51 241 11.3 13.9 0.00 0.00 0.00 100 945.2
20260504023332 51 239 10.4 13.9 0.00 0.00 0.00 100 945.2
20260504022929 51 242 11.3 13.9 0.00 0.00 0.00 100 945.2
20260504022529 51 239 10.4 13.0 0.00 0.00 0.00 100 945.2
20260504022129 51 238 11.3 13.0 0.00 0.00 0.00 100 945.3
20260504021729 51 240 11.3 13.9 0.00 0.00 0.00 100 945.2
20260504021329 51 239 10.4 13.9 0.00 0.00 0.00 100 945.2
20260504020926 52 241 11.3 13.0 0.00 0.00 0.00 100 945.2
20260504020526 52 241 12.2 13.9 0.00 0.00 0.00 100 945.3
20260504020126 52 237 10.4 13.9 0.00 0.00 0.00 100 945.3
20260504015726 52 239 10.4 13.9 0.00 0.00 0.00 100 945.4
20260504015326 52 241 11.3 13.9 0.00 0.00 0.00 100 945.4
20260504014923 52 240 11.3 14.8 0.00 0.00 0.00 100 945.4
20260504014523 52 239 10.4 13.0 0.00 0.00 0.00 100 945.4
20260504014123 52 239 10.4 13.0 0.00 0.00 0.00 100 945.4
20260504013723 52 241 12.2 14.8 0.00 0.00 0.00 100 945.4
20260504013323 52 241 11.3 13.9 0.00 0.00 0.00 100 945.4
20260504012920 52 241 11.3 13.9 0.00 0.00 0.00 100 945.3
20260504012517 52 241 10.4 13.9 0.00 0.00 0.00 100 945.3
20260504012117 52 243 12.2 15.6 0.00 0.00 0.00 100 945.4
20260504011705 52 243 13.0 15.6 0.00 0.00 0.00 100 945.4
20260504011305 51 243 11.3 14.8 0.00 0.00 0.00 100 945.4
20260504010903 51 243 12.2 13.9 0.00 0.00 0.00 100 945.4
20260504010503 51 241 11.3 15.6 0.00 0.00 0.00 100 945.4
20260504005703 52 240 10.4 12.2 0.00 0.00 0.00 100 945.4
20260504005304 52 241 10.4 13.0 0.00 0.00 0.00 100 945.5
20260504004900 52 242 9.6 11.3 0.00 0.00 0.00 100 945.5
20260504004500 52 242 10.4 12.2 0.00 0.00 0.00 100 945.5
20260504004100 52 242 10.4 13.0 0.00 0.00 0.00 100 945.5
20260504003700 52 242 10.4 13.0 0.00 0.00 0.00 100 945.6
20260504003300 52 241 10.4 12.2 0.00 0.00 0.00 100 945.6
20260504002857 52 244 11.3 13.0 0.00 0.00 0.00 100 945.6
20260504002457 52 242 11.3 13.0 0.00 0.00 0.00 100 945.6
20260504002057 52 244 10.4 12.2 0.00 0.00 0.00 100 945.6
20260504001657 52 241 11.3 13.0 0.00 0.00 0.00 100 945.6
20260504001257 52 244 11.3 13.9 0.00 0.00 0.00 100 945.7
20260504000854 52 243 10.4 13.0 0.00 0.00 0.00 100 945.7
20260504000454 52 243 10.4 12.2 0.00 0.00 0.00 100 945.7
20260504000054 52 245 11.3 14.8 0.00 0.00 0.00 100 945.7
20260503235255 52 245 12.2 13.9 0.00 0.00 0.00 100 945.7
20260503234852 52 244 10.4 13.0 0.00 0.00 0.00 100 945.7
20260503234451 52 245 10.4 13.0 0.00 0.00 0.00 100 945.7
20260503234051 53 244 10.4 13.0 0.00 0.00 0.00 100 945.7
20260503233651 53 245 10.4 12.2 0.00 0.00 0.00 100 945.8
20260503233251 53 245 10.4 11.3 0.00 0.00 0.00 100 945.8
20260503232848 53 244 8.7 10.4 0.00 0.00 0.00 100 945.8
20260503232449 53 245 9.6 12.2 0.00 0.00 0.00 100 945.8
20260503232045 53 244 10.4 12.2 0.00 0.00 0.00 100 945.8
20260503231645 53 244 10.4 12.2 0.00 0.00 0.00 100 945.8
20260503231245 53 241 9.6 11.3 0.00 0.00 0.00 100 945.7
20260503230842 53 243 9.6 12.2 0.00 0.00 0.00 100 945.7
20260503230442 53 243 8.7 10.4 0.00 0.00 0.00 100 945.8
20260503230042 53 241 9.6 12.2 0.00 0.00 0.00 100 945.8
20260503225642 54 242 9.6 11.3 0.00 0.00 0.00 100 945.8
20260503225242 54 243 10.4 12.2 0.00 0.00 0.00 100 945.8
20260503224840 54 245 10.4 13.0 0.00 0.00 0.00 100 945.7
20260503224440 53 248 9.6 11.3 0.00 0.00 0.00 100 945.8
20260503224031 53 246 10.4 12.2 0.00 0.00 0.00 100 945.8
20260503223631 53 243 8.7 11.3 0.00 0.00 0.00 100 945.8
20260503223231 54 240 7.0 8.7 0.00 0.00 0.00 100 945.8
20260503222828 54 239 7.0 9.6 0.00 0.00 0.00 100 945.8
20260503222428 54 239 7.0 8.7 0.00 0.00 0.00 100 945.8
20260503222028 54 242 7.0 8.7 0.00 0.00 0.00 100 945.8
20260503221628 54 241 7.0 8.7 0.00 0.00 0.00 100 945.8
20260503221228 55 242 7.8 9.6 0.00 0.00 0.00 100 945.8
20260503220826 55 245 8.7 9.6 0.00 0.00 0.00 100 945.8
20260503220426 55 243 7.8 8.7 0.00 0.00 0.00 100 945.8
20260503220026 55 237 5.2 7.8 0.00 0.00 0.00 100 945.7
20260503215626 55 238 6.1 7.8 0.00 0.00 0.00 100 945.7
20260503215226 55 237 6.1 8.7 0.00 0.00 0.00 100 945.7
20260503214823 55 239 7.0 8.7 0.00 0.00 0.00 100 945.8
20260503214423 55 241 7.0 8.7 0.00 0.00 0.00 100 945.8
20260503214023 55 239 7.0 8.7 0.00 0.00 0.00 100 945.7
20260503213622 56 244 7.0 9.6 0.00 0.00 0.00 100 945.7
20260503213249 0 241 7.0 0.0 0.00 0.00 0.00
20260503213223 56 241 7.0 8.7 0.00 0.00 0.00 100 945.7
20260503212820 56 242 7.8 9.6 0.00 0.00 0.00 100 945.7
20260503212420 56 242 7.0 8.7 0.00 0.00 0.00 100 945.7
20260503212020 56 243 7.0 8.7 0.00 0.00 0.00 100 945.7
20260503211617 56 241 7.8 10.4 0.00 0.00 0.00 100 945.7
20260503211217 56 241 7.0 8.7 0.00 0.00 0.00 100 945.7
20260503210814 56 243 7.8 8.7 0.00 0.00 0.00 100 945.8
20260503210414 56 245 7.8 9.6 0.00 0.00 0.00 100 945.8
20260503210014 56 244 7.8 8.7 0.00 0.00 0.00 100 945.7
20260503205614 56 241 7.0 8.7 0.00 0.00 0.00 100 945.7
20260503205214 56 243 7.0 8.7 0.00 0.00 0.00 100 945.7
20260503204811 57 246 8.7 10.4 0.00 0.00 0.00 100 945.7
20260503204411 57 243 7.8 9.6 0.00 0.00 0.00 100 945.7
20260503204011 57 246 7.8 8.7 0.00 0.00 0.00 100 945.7
20260503203611 58 244 6.1 7.8 0.00 0.00 0.00 100 945.8
20260503203211 58 236 3.5 4.3 0.00 0.00 0.00 100 945.8
20260503202808 58 235 3.5 6.1 0.00 0.00 0.00 100 945.8
20260503202408 57 236 3.5 4.3 0.00 0.00 0.00 100 945.8
20260503202008 57 234 3.5 4.3 0.00 0.00 0.00 100 945.8
20260503201608 58 232 3.5 5.2 0.00 0.00 0.00 100 945.8
20260503201208 58 229 6.1 8.7 0.00 0.00 0.00 100 945.7
20260503200754 58 231 5.2 8.7 0.00 0.00 0.00 100 945.8
20260503200354 58 231 4.3 6.1 0.00 0.00 0.00 100 945.8
20260503195554 58 237 4.3 6.1 0.00 0.00 0.00 100 945.8
20260503195154 58 233 3.5 4.3 0.00 0.00 0.00 100 945.9
20260503194751 58 233 6.1 8.7 0.00 0.00 0.00 100 945.9
20260503194351 58 233 5.2 9.6 0.00 0.00 0.00 100 945.9
20260503193952 58 233 7.0 8.7 0.00 0.00 0.00 100 945.9
20260503193552 59 239 8.7 8.7 0.00 0.00 0.00 100 945.9
20260503193152 59 244 9.6 9.6 0.00 0.00 0.00 100 945.9
20260503192749 59 248 9.6 10.4 0.00 0.00 0.00 100 945.9
20260503192348 59 242 9.6 10.4 0.00 0.00 0.00 100 945.9
20260503191948 59 241 9.6 10.4 0.00 0.00 0.00 100 946.0
20260503191548 59 236 9.6 10.4 0.00 0.00 0.00 100 946.0
20260503191145 59 235 10.4 10.4 0.00 0.00 0.00 100 945.9
20260503190742 59 236 9.6 10.4 0.00 0.00 0.00 100 945.9
20260503190342 59 240 9.6 9.6 0.00 0.00 0.00 100 945.9
20260503185942 59 243 9.6 10.4 0.00 0.00 0.00 100 945.9
20260503185542 59 242 9.6 10.4 0.00 0.00 0.00 100 945.9
20260503185143 59 243 8.7 10.4 0.00 0.00 0.00 100 945.9
20260503184740 59 245 8.7 9.6 0.00 0.00 0.00 100 945.9
20260503184340 59 253 8.7 10.4 0.00 0.00 0.00 100 945.9
20260503183940 59 251 8.7 9.6 0.00 0.00 0.00 100 945.9
20260503183540 59 252 8.7 10.4 0.00 0.00 0.00 100 945.9
20260503183140 59 257 8.7 10.4 0.00 0.00 0.00 100 945.9
20260503182737 59 254 8.7 10.4 0.00 0.00 0.00 100 945.8
20260503182337 59 256 8.7 9.6 0.00 0.00 0.00 100 945.8
20260503181937 59 258 8.7 10.4 0.00 0.00 0.00 100 945.8
20260503181537 59 258 8.7 9.6 0.00 0.00 0.00 100 945.8
20260503181137 59 258 8.7 10.4 0.00 0.00 0.00 100 945.8
20260503180734 59 261 7.8 9.6 0.00 0.00 0.00 100 945.8
20260503180334 60 258 7.8 8.7 0.00 0.00 0.00 100 945.8
20260503175934 60 259 7.8 9.6 0.00 0.00 0.00 100 945.7
20260503175534 60 259 7.8 10.4 0.00 0.00 0.00 100 945.7
20260503175134 60 257 7.8 10.4 0.00 0.00 0.00 100 945.7
20260503174731 60 255 8.7 9.6 0.00 0.00 0.00 100 945.7
20260503174331 60 253 8.7 10.4 0.00 0.00 0.00 100 945.7
20260503173931 60 256 7.8 9.6 0.00 0.00 0.00 100 945.7